Regional Weather Roundup
Issued by NWS

Home | Current Version | Previous Version | Graphics & Text | Print | Product List | Glossary On
Versions: 1 2 3 4 5 6 7 8 9 10 11 12 13 14 15 16 17 18 19 20 21 22 23 24 25 26 27 28 29 30 31 32 33 34 35 36 37 38 39 40 41 42 43 44 45 46 47 48 49 50
000
ASUS45 KABQ 051710
RWRNM
NEW MEXICO REGIONAL WEATHER ROUNDUP
NATIONAL WEATHER SERVICE ALBUQUERQUE NM
1000 AM MST FRI FEB 05 2016

NOTE: "FAIR" MEANS FEW OR NO CLOUDS BELOW 12,000 FEET AGL WITH NO
       SIGNIFICANT WEATHER OR OBSTRUCTIONS TO VISION.

      THIS PRODUCT IS RELEASED AS TWO VERSIONS.  ONE VERSION NEAR
      THE TOP OF THE HOUR CONTAINING PRELIMINARY DATA FROM ALBUQUERQUE
      AND OTHER STATIONS.  A FINAL VERSION WITH ADDITIONAL DATA IS
      ISSUED ABOUT 10 MINUTES AFTER THE HOUR.

NMZ501-503-504-510>518-051800-
NORTHWEST PLATEAU/NORTHCENTRAL MOUNTAINS

CITY           SKY/WX    TMP DP  RH WIND       PRES   REMARKS
FARMINGTON     SUNNY     19  12  74 E6        30.45R WCI  11
LOS ALAMOS     SUNNY     22   9  56 NE15      30.34R WCI   9
SANTA FE       SUNNY     25   9  50 N22G28    30.35R WCI  10
TAOS           CLOUDY    12   3  67 CALM      30.35
ANGEL FIRE     PTSUNNY    7   2  79 CALM      30.27R

$$
NMZ402-403-502-505>509-051800-
WESTCENTRAL MOUNTAINS/SOUTHWEST MOUNTAINS

CITY           SKY/WX    TMP DP  RH WIND       PRES   REMARKS
GALLUP         SUNNY     23  14  68 W3        30.44R
GRANTS         SUNNY     29  12  49 N13G25    30.42R WCI  19
SILVER CITY      N/A     41   9  26 CALM      30.35R

$$
NMZ407-409-411-412-051800-
SOUTHERN DESERTS

CITY           SKY/WX    TMP DP  RH WIND       PRES   REMARKS
LORDSBURG      FAIR      36  18  48 CALM      30.36R
DEMING         SUNNY     43  13  29 NE13      30.37R
LAS CRUCES     SUNNY     41  10  28 N23G30    30.35R
HOLLOMAN AFB   SUNNY     41  11  29 N22G28    30.35R
ALAMOGORDO     SUNNY     41  10  28 N26G32    30.34R
T OR C         SUNNY     37  11  34 NE10      30.37R WCI  30

$$
NMZ519>523-051800-
CENTRAL VALLEYS/CENTRAL HIGHLANDS

CITY           SKY/WX    TMP DP  RH WIND       PRES   REMARKS
ALBUQUERQUE    MOSUNNY   29  13  51 NW10      30.41R WCI  20
DOUBLE EAGLE   MOSUNNY   27  12  54 NW21      30.40R WCI  13
MORIARTY ARPT  FAIR      29  12  49 NW16G22   30.35S WCI  17
CLINES CORNERS SUNNY     22  10  60 NW21G32   30.24S WCI   6
BELEN          FAIR      32  14  46 N8        30.42R WCI  25
SOCORRO        FAIR      32  13  46 N18G24    30.41R WCI  21

$$
NMZ524>526-539-540-051800-
SOUTHCENTRAL MOUNTAINS

CITY           SKY/WX    TMP DP  RH WIND       PRES   REMARKS
RUIDOSO          N/A     27  10  50 NW10      30.29S WCI  17

$$
NMZ527>531-051800-
NORTHEAST HIGHLANDS/NORTHEAST PLAINS

CITY           SKY/WX    TMP DP  RH WIND       PRES   REMARKS
LAS VEGAS      PTSUNNY   29   6  38 N18       30.26R WCI  16
RATON          MIX PCPN  28  18  66 N22G33    30.25R WCI  14
CLAYTON        MOSUNNY   36  21  54 N33G43    30.22S WCI  22

$$
NMZ532>537-051800-
EASTCENTRAL PLAINS

CITY           SKY/WX    TMP DP  RH WIND       PRES   REMARKS
TUCUMCARI      CLOUDY    38  15  39 N21G33    30.27R WCI  28
CANNON AFB     SUNNY     40  16  38 N26G35    30.23R WCI  29
CLOVIS AIRPORT SUNNY     39  18  41 N24G30    30.25R WCI  28

$$
NMZ028-029-538-051800-
SOUTHEAST PLAINS

CITY           SKY/WX    TMP DP  RH WIND       PRES   REMARKS
ROSWELL        MOSUNNY   44  13  28 NW21G29   30.28F
ARTESIA        MOSUNNY   36  16  44 NE8       30.31R WCI  29
CARLSBAD       MOSUNNY   41   9  26 N8        30.30R
HOBBS          SUNNY     46  14  27 NW21      30.28R


$$



USA.gov is the U.S. government's official web portal to all federal, state and local government web resources and services.